COSMOS 2251 DEB, 40797

Orbit data source: Space-Track

COSMOS 2251 DEB, 40797 is space debris in LEO originally from a launch on Wed, 16 Jun 1993 UTC launched from the Plesetsk Missile And Space Complex (PKMTR). The debris from Iridium 33, an American commercial communications satellite, has been tracked extensively since its accidental collision with the defunct Russian satellite Cosmos 2251 in 2009. This event, occurring at high speed in low Earth orbit (LEO), generated thousands of pieces of space debris, significantly increasing the risk of further collisions. The Iridium 33 debris cloud has impacted space traffic management and orbital debris mitigation strategies, making it a subject of ongoing study in space situational awareness.

Loading next visibility...
Identifier
40797, 1993-036BWA
Orbit
LEO
Country
Flag of CISCIS
Related business
Manufacturer
Unknown
Mission
Spacecraft
Bus & Motor
Unknown
Mass
Unknown
Launch date (UTC)
1993-06-16 (33 years ago)
Launch vehicle
Unknown
Launch site
Plesetsk Missile And Space Complex (PKMTR)
Object type
Payload
Rocket body
Debris
Shape & HBR
Unknown shape, 0.1 m
Radar Cross Section
Small (<0.1 m²)

Expand to show TLE details & history
Last TLE update: 2 weeks ago

TLE from 2 weeks ago
0 COSMOS 2251 DEB
1 40797U 93036BWA 26252.25451251  .00011465  00000-0  52481-3 0  9990
2 40797  73.9304 248.3901 0056197  92.9429 267.8201 15.19124923687425
Epoch: 2026-09-09T06:06Z
TLE epoch observation values (Epoch: 2026-09-09T06:06:29.880Z)
Latitude
0.00001°
Longitude
168.45639°
Altitude
512.878 km
Speed
7.607 km/s
True Right ascension
16h 33m 33s
True Declination
0° 00' 00"
Sunlit
Object was in daylight at epoch
Visualization orbit readout
Latitude
Unknown
Longitude
Unknown
Altitude
Unknown
Speed
Unknown
Apparent Right ascension
Unknown
Apparent Declination
Unknown
Sunlit
N/A
Visualization observer readout
Local Sidereal Time
05:03:18
Azimuth
Unknown
Elevation
Unknown
Doppler factor
Unknown
Orbital elements
Apogee altitude
544.713 km
Perigee altitude
467.339 km
Semi-major axis
6,884.163 km
Eccentricity
0.00562
Inclination
73.9304°
RAAN
248.3901°
Arg. of periapsis
92.9429°
True anomaly
267.17678°
Mean anomaly
267.8201°
Eccentric anomaly
267.49842°
Mean motion
3.79985 °/min
Orbital period
94.74 mins
BSTAR
0.00052481

Documentation

Showing up to 5 results
|